Preview of NWS' New Version of Forecast
This preview is not operational and should not be used for support decisions.

Regional Weather Roundup (RWR)

Issued by National Weather Service (NWS)

                            
000
ASUS43 KTOP 250508
RWRKS 

WEATHER ROUNDUP FOR KANSAS
NATIONAL WEATHER SERVICE GOODLAND KS
1200 AM CDT TUE JUN 25 2019

NOTE:  "FAIR" INDICATES FEW OR NO CLOUDS BELOW 12,000 FEET WITH NO
SIGNIFICANT WEATHER AND/OR OBSTRUCTIONS TO VISIBILITY.

KSZ001>006-013>018-027>032-041>047-250600-
NORTHWEST KANSAS
  
CITY           SKY/WX    TMP DP  RH WIND       PRES   REMARKS
GOODLAND       CLEAR     71  41  33 SW13      29.89R                  
HAYS           CLEAR     68  56  65 SW15      29.84S                  
HILL CITY      CLEAR     70  49  47 SW7       29.82S                  
RUSSELL        CLEAR     69  55  60 S14       29.82S                  
$$

KSZ061>065-074>080-084>089-250600-
SOUTHWEST KANSAS
  
CITY           SKY/WX    TMP DP  RH WIND       PRES   REMARKS
DODGE CITY     CLEAR     69  56  62 S12       29.92R                  
ELKHART        CLEAR     69  57  65 S16       29.93S                  
GARDEN CITY    CLEAR     67  57  70 S9        29.91R                  
GREAT BEND     CLEAR     70  56  61 S13       29.87R                  
LIBERAL        CLEAR     67  57  70 S10       29.93R                  
PRATT          CLEAR     72  53  51 S17       29.90S                  
$$

KSZ066>073-081>083-090>101-250600-
SOUTHEAST KANSAS
  
CITY           SKY/WX    TMP DP  RH WIND       PRES   REMARKS
CHANUTE        CLEAR     67  60  78 S7        29.92S                  
COFFEYVILLE    CLEAR     67  62  84 S6        29.93R                  
HUTCHINSON     CLEAR     72  57  59 MISG      29.87R                  
MEDICINE LODGE   N/A     71  57  61 S9        29.90S                  
NEWTON         CLEAR     68  59  73 S14       29.90R                  
PARSONS        CLEAR     67  62  84 CALM      29.94R                  
WICHITA INTL   CLEAR     71  59  65 S12       29.89S                  
WICHITA JABRA  CLEAR     69  59  70 S13       29.89S                  
WICHITA MCCONL CLEAR     72  59  64 SE14      29.90S                  
WINFIELD       CLEAR     68  61  78 S10       29.92F                  
$$

KSZ007>012-019>026-033>040-048>060-102>105-250600-
NORTHEAST KANSAS
  
CITY           SKY/WX    TMP DP  RH WIND       PRES   REMARKS
CONCORDIA      CLEAR     73  59  61 S16       29.80S                  
EMPORIA        CLEAR     68  61  78 S14       29.89R                  
LAWRENCE       CLEAR     68  60  75 S6        29.87R                  
MANHATTAN      CLEAR     72  58  61 SW9       29.83S                  
MARYSVILLE     CLEAR     68  59  73 S7        29.82S                  
OLATHE IND     CLEAR     66  60  81 S8        29.89F                  
OLATHE EXE     CLEAR     66  60  81 S6        29.88F                  
SALINA         CLEAR     67  58  72 S8        29.84R                  
TOPEKA BILLARD CLEAR     70  60  70 S6        29.85S                  
TOPEKA FORBES  CLEAR     70  59  68 S12       29.86S                  
$$